| time (UTC) | temp C | wind direction | speed KPH | gust KPH | rain 1hr cm | rain 24hr cm | rain mn cm | humidity % | barometer mb |
| 20260906214558 | 32 | 109 | 17.7 | 29.0 | 0.00 | 0.00 | 0.00 | 37 | 1015.3 |
| 20260906213106 | 33 | 89 | 19.3 | 32.2 | 0.00 | 0.00 | 0.00 | 36 | 1015.4 |
| 20260906211602 | 33 | 165 | 14.5 | 30.6 | 0.00 | 0.00 | 0.00 | 35 | 1015.6 |
| 20260906210100 | 32 | 118 | 14.5 | 37.0 | 0.00 | 0.00 | 0.00 | 36 | 1015.9 |
| 20260906204608 | 33 | 149 | 16.1 | 29.0 | 0.00 | 0.00 | 0.00 | 36 | 1016.1 |
| 20260906203102 | 32 | 168 | 16.1 | 30.6 | 0.00 | 0.00 | 0.00 | 36 | 1016.2 |
| 20260906200104 | 32 | 146 | 11.3 | 30.6 | 0.00 | 0.00 | 0.00 | 37 | 1016.5 |
| 20260906194613 | 32 | 117 | 14.5 | 32.2 | 0.00 | 0.00 | 0.00 | 37 | 1016.7 |
| 20260906193104 | 32 | 123 | 16.1 | 32.2 | 0.00 | 0.00 | 0.00 | 38 | 1016.7 |
| 20260906191604 | 31 | 174 | 19.3 | 37.0 | 0.00 | 0.00 | 0.00 | 39 | 1016.9 |
| 20260906184607 | 31 | 146 | 17.7 | 40.2 | 0.00 | 0.00 | 0.00 | 39 | 1017.3 |
| 20260906183105 | 31 | 87 | 27.4 | 38.6 | 0.00 | 0.00 | 0.00 | 38 | 1017.4 |
| 20260906181607 | 32 | 108 | 12.9 | 35.4 | 0.00 | 0.00 | 0.00 | 38 | 1017.7 |
| 20260906180109 | 31 | 106 | 20.9 | 30.6 | 0.00 | 0.00 | 0.00 | 39 | 1017.8 |
| 20260906174606 | 31 | 134 | 19.3 | 30.6 | 0.00 | 0.00 | 0.00 | 40 | 1018.1 |
| 20260906173113 | 31 | 81 | 19.3 | 27.4 | 0.00 | 0.00 | 0.00 | 42 | 1018.3 |
| 20260906171608 | 31 | 88 | 20.9 | 33.8 | 0.00 | 0.00 | 0.00 | 42 | 1018.4 |
| 20260906170109 | 31 | 121 | 22.5 | 29.0 | 0.00 | 0.00 | 0.00 | 44 | 1018.3 |
| 20260906164612 | 30 | 121 | 11.3 | 24.1 | 0.00 | 0.00 | 0.00 | 47 | 1018.4 |
| 20260906163109 | 30 | 83 | 12.9 | 20.9 | 0.00 | 0.00 | 0.00 | 49 | 1018.3 |
| 20260906161559 | 29 | 119 | 8.0 | 17.7 | 0.00 | 0.00 | 0.00 | 50 | 1018.1 |
| 20260906160104 | 29 | 111 | 6.4 | 17.7 | 0.00 | 0.00 | 0.00 | 52 | 1018.3 |
| 20260906154602 | 28 | 192 | 6.4 | 17.7 | 0.00 | 0.00 | 0.00 | 54 | 1018.1 |
| 20260906153106 | 28 | 134 | 11.3 | 16.1 | 0.00 | 0.00 | 0.00 | 54 | 1017.9 |
| 20260906151607 | 27 | 158 | 8.0 | 12.9 | 0.00 | 0.00 | 0.00 | 56 | 1017.6 |
| 20260906144603 | 27 | 132 | 11.3 | 17.7 | 0.00 | 0.00 | 0.00 | 59 | 1017.7 |
| 20260906143114 | 26 | 146 | 11.3 | 17.7 | 0.00 | 0.00 | 0.00 | 61 | 1017.8 |
| 20260906141601 | 26 | 128 | 9.7 | 17.7 | 0.00 | 0.00 | 0.00 | 63 | 1017.6 |
| 20260906140105 | 25 | 119 | 12.9 | 17.7 | 0.00 | 0.00 | 0.00 | 64 | 1017.6 |
| 20260906134601 | 25 | 128 | 12.9 | 19.3 | 0.00 | 0.00 | 0.00 | 65 | 1017.4 |
| 20260906133105 | 25 | 125 | 12.9 | 19.3 | 0.00 | 0.00 | 0.00 | 64 | 1017.2 |
| 20260906131605 | 23 | 123 | 9.7 | 12.9 | 0.00 | 0.00 | 0.00 | 66 | 1016.9 |
| 20260906130103 | 23 | 127 | 8.0 | 12.9 | 0.00 | 0.00 | 0.00 | 68 | 1016.7 |
| 20260906124600 | 22 | 126 | 4.8 | 11.3 | 0.00 | 0.00 | 0.00 | 67 | 1016.5 |
| 20260906123101 | 22 | 119 | 9.7 | 12.9 | 0.00 | 0.00 | 0.00 | 67 | 1016.4 |
| 20260906121601 | 23 | 113 | 6.4 | 11.3 | 0.00 | 0.00 | 0.00 | 67 | 1016.5 |
| 20260906120114 | 23 | 124 | 8.0 | 12.9 | 0.00 | 0.00 | 0.00 | 67 | 1016.2 |
| 20260906114607 | 23 | 133 | 9.7 | 12.9 | 0.00 | 0.00 | 0.00 | 66 | 1016.2 |
| 20260906113103 | 23 | 132 | 9.7 | 14.5 | 0.00 | 0.00 | 0.00 | 66 | 1016.4 |
| 20260906111612 | 23 | 126 | 8.0 | 11.3 | 0.00 | 0.00 | 0.00 | 65 | 1016.3 |
| 20260906110100 | 23 | 155 | 6.4 | 8.0 | 0.00 | 0.00 | 0.00 | 66 | 1016.2 |
| 20260906104600 | 23 | 168 | 4.8 | 6.4 | 0.00 | 0.00 | 0.00 | 65 | 1015.8 |
| 20260906103105 | 23 | 169 | 4.8 | 8.0 | 0.00 | 0.00 | 0.00 | 65 | 1015.9 |
| 20260906101604 | 24 | 174 | 1.6 | 4.8 | 0.00 | 0.00 | 0.00 | 64 | 1016.0 |
| 20260906094602 | 24 | 163 | 8.0 | 11.3 | 0.00 | 0.00 | 0.00 | 64 | 1015.8 |
| 20260906093100 | 25 | 168 | 6.4 | 9.7 | 0.00 | 0.00 | 0.00 | 63 | 1015.8 |
| 20260906091610 | 25 | 170 | 3.2 | 9.7 | 0.00 | 0.00 | 0.00 | 62 | 1015.7 |
| 20260906090104 | 25 | 165 | 6.4 | 12.9 | 0.00 | 0.00 | 0.00 | 61 | 1015.8 |
| 20260906084605 | 25 | 166 | 9.7 | 16.1 | 0.00 | 0.00 | 0.00 | 60 | 1015.8 |
| 20260906083107 | 25 | 161 | 11.3 | 17.7 | 0.00 | 0.00 | 0.00 | 60 | 1015.8 |
| 20260906081605 | 26 | 174 | 9.7 | 20.9 | 0.00 | 0.00 | 0.00 | 59 | 1015.8 |
| 20260906080110 | 26 | 169 | 9.7 | 17.7 | 0.00 | 0.00 | 0.00 | 58 | 1015.8 |
| 20260906074604 | 26 | 168 | 11.3 | 16.1 | 0.00 | 0.00 | 0.00 | 57 | 1015.9 |
| 20260906073103 | 26 | 159 | 11.3 | 17.7 | 0.00 | 0.00 | 0.00 | 57 | 1015.9 |
| 20260906071604 | 26 | 160 | 9.7 | 17.7 | 0.00 | 0.00 | 0.00 | 56 | 1016.1 |
| 20260906070108 | 26 | 150 | 11.3 | 16.1 | 0.00 | 0.00 | 0.00 | 55 | 1016.1 |
| 20260906064603 | 27 | 165 | 11.3 | 17.7 | 0.00 | 0.00 | 0.00 | 55 | 1016.3 |
| 20260906063103 | 27 | 162 | 12.9 | 19.3 | 0.00 | 0.00 | 0.00 | 54 | 1016.5 |
| 20260906061601 | 27 | 177 | 12.9 | 20.9 | 0.00 | 0.00 | 0.00 | 54 | 1016.6 |
| 20260906060108 | 27 | 167 | 11.3 | 19.3 | 0.00 | 0.00 | 0.00 | 54 | 1016.8 |
| 20260906054607 | 27 | 168 | 14.5 | 22.5 | 0.00 | 0.00 | 0.00 | 53 | 1016.7 |
| 20260906053101 | 27 | 168 | 16.1 | 25.7 | 0.00 | 0.00 | 0.00 | 52 | 1016.8 |
| 20260906051608 | 27 | 169 | 16.1 | 29.0 | 0.00 | 0.00 | 0.00 | 52 | 1016.6 |
| 20260906050107 | 28 | 154 | 22.5 | 33.8 | 0.00 | 0.00 | 0.00 | 52 | 1016.7 |
| 20260906044602 | 28 | 150 | 25.7 | 38.6 | 0.00 | 0.00 | 0.00 | 51 | 1016.6 |
| 20260906043101 | 28 | 158 | 27.4 | 41.8 | 0.00 | 0.00 | 0.00 | 50 | 1016.5 |
| 20260906041619 | 30 | 139 | 25.7 | 38.6 | 0.00 | 0.00 | 0.00 | 47 | 1016.4 |
| 20260906040113 | 30 | 128 | 14.5 | 19.3 | 0.00 | 0.00 | 0.00 | 43 | 1016.0 |
| 20260906034603 | 30 | 125 | 12.9 | 22.5 | 0.00 | 0.00 | 0.00 | 42 | 1015.9 |
| 20260906033104 | 30 | 126 | 14.5 | 20.9 | 0.00 | 0.00 | 0.00 | 42 | 1015.8 |
| 20260906031609 | 31 | 129 | 12.9 | 19.3 | 0.00 | 0.00 | 0.00 | 42 | 1015.6 |
| 20260906024624 | 31 | 115 | 14.5 | 22.5 | 0.00 | 0.00 | 0.00 | 39 | 1015.2 |
| 20260906023104 | 31 | 126 | 16.1 | 25.7 | 0.00 | 0.00 | 0.00 | 38 | 1014.7 |
| 20260906021611 | 32 | 110 | 16.1 | 22.5 | 0.00 | 0.00 | 0.00 | 36 | 1014.5 |
| 20260906020103 | 32 | 111 | 16.1 | 22.5 | 0.00 | 0.00 | 0.00 | 36 | 1014.3 |
| 20260906014609 | 32 | 112 | 14.5 | 22.5 | 0.00 | 0.00 | 0.00 | 35 | 1014.2 |
| 20260906013103 | 32 | 114 | 17.7 | 24.1 | 0.00 | 0.00 | 0.00 | 35 | 1014.1 |
| 20260906011601 | 33 | 126 | 17.7 | 24.1 | 0.00 | 0.00 | 0.00 | 34 | 1014.2 |
| 20260906010116 | 33 | 107 | 17.7 | 25.7 | 0.00 | 0.00 | 0.00 | 33 | 1014.1 |
| 20260906004610 | 33 | 109 | 12.9 | 27.4 | 0.00 | 0.00 | 0.00 | 31 | 1014.1 |
| 20260906003113 | 34 | 105 | 12.9 | 25.7 | 0.00 | 0.00 | 0.00 | 30 | 1014.1 |
| 20260906001605 | 34 | 93 | 14.5 | 27.4 | 0.00 | 0.00 | 0.00 | 30 | 1013.8 |
| 20260906000106 | 35 | 82 | 17.7 | 27.4 | 0.00 | 0.00 | 0.00 | 29 | 1013.8 |
| 20260905234609 | 35 | 136 | 16.1 | 27.4 | 0.00 | 0.00 | 0.00 | 30 | 1013.7 |
| 20260905233100 | 35 | 109 | 11.3 | 29.0 | 0.00 | 0.00 | 0.00 | 30 | 1013.6 |
| 20260905231603 | 35 | 119 | 14.5 | 29.0 | 0.00 | 0.00 | 0.00 | 31 | 1013.6 |
| 20260905230106 | 35 | 103 | 12.9 | 32.2 | 0.00 | 0.00 | 0.00 | 30 | 1013.6 |
| 20260905224556 | 35 | 67 | 12.9 | 27.4 | 0.00 | 0.00 | 0.00 | 32 | 1013.5 |
| 20260905223104 | 35 | 95 | 11.3 | 24.1 | 0.00 | 0.00 | 0.00 | 33 | 1013.7 |
| 20260905221557 | 35 | 108 | 17.7 | 35.4 | 0.00 | 0.00 | 0.00 | 33 | 1013.6 |